STARLINK-5282 (54169 NORAD) Tracking and Keplerian Element Data

This shows tracking and keplerian element data for the satellite.

Feedback or suggestion? Click here.




ElementValue
Catalog54169
NameSTARLINK-5282
Epoch Orbit384
Epoch Day325.25001157
Epoch Year2022
RAAN24.1236
Inclination53.2188
Eccentricity0.0003069
Argument of Perigee7.6522
Mean Anonmoly8.4177
Mean Motion15.73154086
Decay Rate0.00106759
L11 54169U 22141N 22325.25001157 .00106759 00000+0 75682-3 0 9998
L22 54169 53.2188 24.1236 0003069 7.6522 8.4177 15.73154086 3844



Live tracking and technical data element details for STARLINK-5282 (NORAD 54169). STARLINK-5282 can be tracked NOW for your location showing map with azimuth and elevation plus other details from your city location.







IsCatalogInMostPopularTable: catalog: 54169, numindb: 4
Update: records affected: 1



GetName: 54169 STARLINK-5282

Hit Count: updated at: Mon, 28 Nov 2022 20:51:40 GMT